Flag for U.S.A. Weather past 2 weeks in Lansing, Michigan, U.S.A.

Now
42 °F

Fog.


Feels Like: 42 °F
Forecast: 45 / 62 °F
Wind: No wind

Location: Capital City Airport

Current Time: Sep 18, 2014 at 6:31:37 AM

Latest Report: Sep 18, 2014 at 5:53 AM


Visibility: 4 mi

Pressure: 30.10 "Hg

Humidity: 96%

Dew point: 41 °F

Location of LansingLocation

Historic Weather in Lansing — Graph

°F

Lansing temperature yesterday

Maximum temperature yesterday: 66 °F (at 1:53 PM)
Minimum temperature yesterday: 41 °F (at 4:53 AM)
Average temperature yesterday: 53 °F

Past Weeks' High & Low Weather Summary

 TemperatureHumidityPressure
High88 °F (Sep 5, 3:53 PM)100% (Sep 16, 8:53 AM)30.36 "Hg (Sep 16, 8:53 AM)
Low41 °F (Sep 17, 4:53 AM)42% (Sep 7, 4:53 PM)29.53 "Hg (Sep 10, 4:53 PM)
Average61 °F76%30.09 "Hg
* Reported Sep 3 4:53 AM — Sep 18 4:53 AM, Lansing, Weather by CustomWeather, © 2014

Note: Actual official high and low records may vary slightly from our data, if they occured in-between our weather recording intervals... More about our weather records

Advertising

Lansing weather history for previous 24 hours

 ConditionsComfort  
Time TempWeatherWind HumidityBarometerVisibility
4:53 AM
Sep 18
43 °FFog.No wind97%30.08 "Hg3 mi
3:53 AM45 °FClear.No wind93%30.06 "Hg8 mi
2:53 AM46 °FClear.No wind89%30.06 "Hg8 mi
1:53 AM46 °FFog.No wind89%30.05 "Hg4 mi
12:53 AM47 °FClear.No wind93%30.04 "Hg8 mi
11:53 PM
Sep 17
49 °FClear.No wind90%30.04 "Hg9 mi
10:53 PM49 °FClear.No wind90%30.03 "Hg9 mi
9:53 PM52 °FClear.No wind83%30.02 "Hg10 mi
8:53 PM55 °FClear.3 mph77%30.01 "Hg10 mi
7:53 PM57 °FSunny.7 mph72%30.00 "Hg10 mi
6:53 PM63 °FSunny.7 mph58%29.99 "Hg10 mi
5:53 PM65 °FPassing clouds.10 mph51%29.99 "Hg10 mi
4:53 PM63 °FPartly sunny.9 mph58%30.00 "Hg10 mi
3:53 PM65 °FPartly sunny.7 mph47%30.00 "Hg10 mi
2:53 PM64 °FScattered clouds.9 mph43%30.01 "Hg10 mi
1:53 PM66 °FScattered clouds.N/A43%30.02 "Hg10 mi
12:53 PM63 °FSunny.9 mph50%30.03 "Hg10 mi
11:53 AM61 °FSunny.7 mph54%30.04 "Hg10 mi
10:53 AM59 °FSunny.7 mph60%30.06 "Hg10 mi
9:53 AM54 °FSunny.5 mph72%30.07 "Hg10 mi
8:53 AM48 °FSunny.6 mph83%30.08 "Hg10 mi
7:53 AM42 °FClear.3 mph89%30.09 "Hg9 mi
6:53 AM42 °FClear.No wind89%30.07 "Hg10 mi
Weather by CustomWeather, © 2014

See weather overviewHow to use our weather pages